Time,TemperatureF,DewpointF,PressureIn,WindDirection,WindDirectionDegrees,WindSpeedMPH,WindSpeedGustMPH,Humidity,HourlyPrecipIn,Conditions,Clouds,dailyrainin,SoftwareType,DateUTC
2013-10-09 00:01:00,47.1,22.2,30.04,North,5,0.0,0.0,37,0.00,,---,0.00,VWS V14.01,2013-10-09 04:01:00,
2013-10-09 00:02:00,47.1,22.2,30.04,North,5,0.0,0.0,37,0.00,,---,0.00,VWS V14.01,2013-10-09 04:02:00,
2013-10-09 00:07:00,47.1,22.2,30.04,NNW,348,0.0,0.0,37,0.00,,---,0.00,VWS V14.01,2013-10-09 04:07:00,
2013-10-09 00:11:00,47.3,22.4,30.04,NNW,348,0.0,0.0,37,0.00,,---,0.00,VWS V14.01,2013-10-09 04:11:00,
2013-10-09 00:16:00,47.3,22.4,30.04,WNW,289,0.0,0.0,37,0.00,,---,0.00,VWS V14.01,2013-10-09 04:16:00,
2013-10-09 00:21:00,47.5,22.5,30.04,WNW,291,0.0,0.0,37,0.00,,---,0.00,VWS V14.01,2013-10-09 04:21:00,
2013-10-09 00:26:00,47.5,22.5,30.04,NW,310,0.0,0.0,37,0.00,,---,0.00,VWS V14.01,2013-10-09 04:26:00,
2013-10-09 00:31:00,47.5,22.5,30.04,NW,310,0.0,0.0,37,0.00,,---,0.00,VWS V14.01,2013-10-09 04:31:00,
2013-10-09 00:36:00,47.5,22.5,30.04,NW,319,0.0,0.0,37,0.00,,---,0.00,VWS V14.01,2013-10-09 04:36:00,
2013-10-09 00:41:00,47.5,22.5,30.04,NW,319,0.0,0.0,37,0.00,,---,0.00,VWS V14.01,2013-10-09 04:41:00,
2013-10-09 00:46:00,47.5,22.5,30.04,WNW,289,0.0,0.0,37,0.00,,---,0.00,VWS V14.01,2013-10-09 04:46:00,
2013-10-09 00:51:00,47.5,22.5,30.04,North,10,0.0,0.0,37,0.00,,---,0.00,VWS V14.01,2013-10-09 04:51:00,
2013-10-09 00:56:00,47.7,22.7,30.04,North,10,0.0,0.0,37,0.00,,---,0.00,VWS V14.01,2013-10-09 04:56:00,
2013-10-09 01:01:00,47.7,22.7,30.04,NNE,17,0.0,0.0,37,0.00,,---,0.00,VWS V14.01,2013-10-09 05:01:00,
2013-10-09 01:06:00,47.7,22.7,30.04,ENE,60,0.0,0.0,37,0.00,,---,0.00,VWS V14.01,2013-10-09 05:06:00,
2013-10-09 01:11:00,47.7,22.7,30.04,NE,38,0.0,4.9,37,0.00,,---,0.00,VWS V14.01,2013-10-09 05:11:00,
2013-10-09 01:16:00,47.7,22.7,30.04,NE,56,0.0,0.0,37,0.00,,---,0.00,VWS V14.01,2013-10-09 05:16:00,
2013-10-09 01:21:00,47.5,22.5,30.04,North,353,0.0,0.0,37,0.00,,---,0.00,VWS V14.01,2013-10-09 05:21:00,
2013-10-09 01:26:00,47.3,22.4,30.04,North,353,0.0,0.0,37,0.00,,---,0.00,VWS V14.01,2013-10-09 05:26:00,
2013-10-09 01:31:00,47.1,22.2,30.01,NE,35,0.0,0.0,37,0.00,,---,0.00,VWS V14.01,2013-10-09 05:31:00,
2013-10-09 01:36:00,47.1,22.2,30.01,NE,45,0.0,0.0,37,0.00,,---,0.00,VWS V14.01,2013-10-09 05:36:00,
2013-10-09 01:41:00,46.9,22.0,30.01,NE,45,0.0,0.0,37,0.00,,---,0.00,VWS V14.01,2013-10-09 05:41:00,
2013-10-09 01:46:00,47.1,22.2,30.04,West,277,0.0,0.0,37,0.00,,---,0.00,VWS V14.01,2013-10-09 05:46:00,
2013-10-09 01:51:00,47.1,22.2,30.04,NNE,23,0.0,0.0,37,0.00,,---,0.00,VWS V14.01,2013-10-09 05:51:00,
2013-10-09 01:56:00,47.1,22.2,30.04,NNE,23,0.0,0.0,37,0.00,,---,0.00,VWS V14.01,2013-10-09 05:56:00,
2013-10-09 02:01:00,47.1,22.2,30.04,NNW,333,0.0,2.2,37,0.00,,---,0.00,VWS V14.01,2013-10-09 06:01:00,
2013-10-09 02:06:00,47.1,22.2,30.04,NNW,329,0.0,0.0,37,0.00,,---,0.00,VWS V14.01,2013-10-09 06:06:00,
2013-10-09 02:11:00,46.9,22.0,30.04,NNW,329,0.0,0.0,37,0.00,,---,0.00,VWS V14.01,2013-10-09 06:11:00,
2013-10-09 02:16:00,46.8,21.9,30.04,NNW,329,0.0,0.0,37,0.00,,---,0.00,VWS V14.01,2013-10-09 06:16:00,
2013-10-09 02:21:00,46.8,21.9,30.04,North,8,0.0,0.0,37,0.00,,---,0.00,VWS V14.01,2013-10-09 06:21:00,
2013-10-09 02:26:00,46.8,21.9,30.04,North,1,0.0,0.0,37,0.00,,---,0.00,VWS V14.01,2013-10-09 06:26:00,
2013-10-09 02:31:00,46.8,21.9,30.04,NNE,19,0.0,0.0,37,0.00,,---,0.00,VWS V14.01,2013-10-09 06:31:00,
2013-10-09 02:36:00,46.6,21.7,30.04,NNE,31,0.0,0.0,37,0.00,,---,0.00,VWS V14.01,2013-10-09 06:36:00,
2013-10-09 02:41:00,46.8,21.9,30.04,NNE,31,0.0,0.0,37,0.00,,---,0.00,VWS V14.01,2013-10-09 06:41:00,
2013-10-09 02:46:00,46.8,21.9,30.04,NE,46,0.0,0.0,37,0.00,,---,0.00,VWS V14.01,2013-10-09 06:46:00,
2013-10-09 02:51:00,46.8,21.9,30.04,NE,46,0.0,0.0,37,0.00,,---,0.00,VWS V14.01,2013-10-09 06:51:00,
2013-10-09 02:56:00,46.8,21.9,30.04,NW,314,0.0,0.0,37,0.00,,---,0.00,VWS V14.01,2013-10-09 06:56:00,
2013-10-09 03:01:00,46.9,22.0,30.04,NE,45,2.7,2.7,37,0.00,,---,0.00,VWS V14.01,2013-10-09 07:01:00,
2013-10-09 03:06:00,46.9,22.0,30.04,NE,45,0.0,0.0,37,0.00,,---,0.00,VWS V14.01,2013-10-09 07:06:00,
2013-10-09 03:11:00,46.8,21.9,30.04,North,0,0.0,0.0,37,0.00,,---,0.00,VWS V14.01,2013-10-09 07:11:00,
2013-10-09 03:16:00,46.8,21.9,30.04,NE,36,0.0,0.0,37,0.00,,---,0.00,VWS V14.01,2013-10-09 07:16:00,
2013-10-09 03:21:00,46.8,21.9,30.04,NNW,342,0.0,0.0,37,0.00,,---,0.00,VWS V14.01,2013-10-09 07:21:00,
2013-10-09 03:26:00,46.8,21.9,30.04,North,2,0.0,0.0,37,0.00,,---,0.00,VWS V14.01,2013-10-09 07:26:00,
2013-10-09 03:31:00,46.8,21.9,30.01,NE,43,2.7,3.6,37,0.00,,---,0.00,VWS V14.01,2013-10-09 07:31:00,
2013-10-09 03:36:00,46.8,21.9,30.01,North,11,0.0,0.0,37,0.00,,---,0.00,VWS V14.01,2013-10-09 07:36:00,
2013-10-09 03:41:00,46.8,21.9,30.01,NE,37,0.0,0.0,37,0.00,,---,0.00,VWS V14.01,2013-10-09 07:41:00,
2013-10-09 03:46:00,46.8,21.9,30.01,North,10,0.0,0.0,37,0.00,,---,0.00,VWS V14.01,2013-10-09 07:46:00,
2013-10-09 03:51:00,46.9,22.0,30.01,ENE,67,3.1,4.0,37,0.00,,---,0.00,VWS V14.01,2013-10-09 07:51:00,
2013-10-09 03:56:00,46.9,22.0,30.01,NNE,27,0.0,0.0,37,0.00,,---,0.00,VWS V14.01,2013-10-09 07:56:00,
2013-10-09 04:01:00,47.1,22.2,30.01,NE,40,0.0,0.0,37,0.00,,---,0.00,VWS V14.01,2013-10-09 08:01:00,
2013-10-09 04:06:00,47.1,22.2,30.01,NNW,346,0.0,0.0,37,0.00,,---,0.00,VWS V14.01,2013-10-09 08:06:00,
2013-10-09 04:11:00,47.1,22.2,30.01,NE,39,3.1,3.1,37,0.00,,---,0.00,VWS V14.01,2013-10-09 08:11:00,
2013-10-09 04:16:00,47.1,22.2,30.01,NE,39,0.0,0.0,37,0.00,,---,0.00,VWS V14.01,2013-10-09 08:16:00,
2013-10-09 04:21:00,47.1,22.2,30.01,NE,39,0.0,0.0,37,0.00,,---,0.00,VWS V14.01,2013-10-09 08:21:00,
2013-10-09 04:26:00,47.1,22.2,30.01,NNE,21,0.0,0.0,37,0.00,,---,0.00,VWS V14.01,2013-10-09 08:26:00,
2013-10-09 04:31:00,47.3,22.4,30.01,NE,52,0.0,0.0,37,0.00,,---,0.00,VWS V14.01,2013-10-09 08:31:00,
2013-10-09 04:36:00,47.1,22.2,30.01,NE,52,0.0,0.0,37,0.00,,---,0.00,VWS V14.01,2013-10-09 08:36:00,
2013-10-09 04:41:00,47.1,22.2,30.01,NE,38,0.0,0.0,37,0.00,,---,0.00,VWS V14.01,2013-10-09 08:41:00,
2013-10-09 04:46:00,46.9,22.0,30.01,North,353,0.0,0.0,37,0.00,,---,0.00,VWS V14.01,2013-10-09 08:46:00,
2013-10-09 04:51:00,46.8,21.9,30.01,North,353,0.0,2.7,37,0.00,,---,0.00,VWS V14.01,2013-10-09 08:51:00,
2013-10-09 04:56:00,46.8,21.9,30.01,NE,34,0.0,0.0,37,0.00,,---,0.00,VWS V14.01,2013-10-09 08:56:00,
2013-10-09 05:01:00,46.6,21.7,30.01,NW,316,2.7,3.6,37,0.00,,---,0.00,VWS V14.01,2013-10-09 09:01:00,
2013-10-09 05:06:00,46.8,21.9,30.01,NW,323,0.0,0.0,37,0.00,,---,0.00,VWS V14.01,2013-10-09 09:06:00,
2013-10-09 05:11:00,46.8,21.9,30.01,NE,41,0.0,0.0,37,0.00,,---,0.00,VWS V14.01,2013-10-09 09:11:00,
2013-10-09 05:16:00,46.9,22.0,30.01,NNW,342,0.0,0.0,37,0.00,,---,0.00,VWS V14.01,2013-10-09 09:16:00,
2013-10-09 05:21:00,46.9,22.0,30.01,NNE,32,0.0,0.0,37,0.00,,---,0.00,VWS V14.01,2013-10-09 09:21:00,
2013-10-09 05:26:00,46.9,22.0,30.01,ENE,63,0.0,0.0,37,0.00,,---,0.00,VWS V14.01,2013-10-09 09:26:00,
2013-10-09 05:31:00,46.9,22.0,30.04,NE,46,0.0,0.0,37,0.00,,---,0.00,VWS V14.01,2013-10-09 09:31:00,
2013-10-09 05:36:00,46.9,22.0,30.04,WNW,292,0.0,0.0,37,0.00,,---,0.00,VWS V14.01,2013-10-09 09:36:00,
2013-10-09 05:41:00,46.9,22.0,30.04,NNE,31,0.0,0.0,37,0.00,,---,0.00,VWS V14.01,2013-10-09 09:41:00,
2013-10-09 05:46:00,46.8,21.9,30.04,NNE,31,0.0,0.0,37,0.00,,---,0.00,VWS V14.01,2013-10-09 09:46:00,
2013-10-09 05:51:00,46.9,22.0,30.04,NNE,26,0.0,0.0,37,0.00,,---,0.00,VWS V14.01,2013-10-09 09:51:00,
2013-10-09 05:56:00,47.1,22.2,30.04,North,353,0.0,0.0,37,0.00,,---,0.00,VWS V14.01,2013-10-09 09:56:00,
2013-10-09 06:01:00,47.1,22.2,30.01,NNE,27,0.0,0.0,37,0.00,,---,0.00,VWS V14.01,2013-10-09 10:01:00,
2013-10-09 06:06:00,47.1,22.2,30.01,NE,49,0.0,0.0,37,0.00,,---,0.00,VWS V14.01,2013-10-09 10:06:00,
2013-10-09 06:11:00,46.9,22.0,30.01,NNE,21,0.0,0.0,37,0.00,,---,0.00,VWS V14.01,2013-10-09 10:11:00,
2013-10-09 06:16:00,46.9,22.0,30.04,NE,47,0.0,0.0,37,0.00,,---,0.00,VWS V14.01,2013-10-09 10:16:00,
2013-10-09 06:21:00,46.9,22.0,30.04,ENE,60,0.0,0.0,37,0.00,,---,0.00,VWS V14.01,2013-10-09 10:21:00,
2013-10-09 06:26:00,46.8,21.9,30.04,NNE,25,0.0,0.0,37,0.00,,---,0.00,VWS V14.01,2013-10-09 10:26:00,
2013-10-09 06:31:00,46.8,21.9,30.04,NNE,25,0.0,0.0,37,0.00,,---,0.00,VWS V14.01,2013-10-09 10:31:00,
2013-10-09 06:36:00,46.6,21.7,30.04,NNE,17,0.0,0.0,37,0.00,,---,0.00,VWS V14.01,2013-10-09 10:36:00,
2013-10-09 06:41:00,46.6,21.7,30.04,NE,44,0.0,0.0,37,0.00,,---,0.00,VWS V14.01,2013-10-09 10:41:00,
2013-10-09 06:46:00,46.4,21.6,30.04,NE,44,0.0,0.0,37,0.00,,---,0.00,VWS V14.01,2013-10-09 10:46:00,
2013-10-09 06:51:00,46.2,22.0,30.04,NE,40,0.0,0.0,38,0.00,,---,0.00,VWS V14.01,2013-10-09 10:51:00,
2013-10-09 06:56:00,46.4,21.6,30.04,NE,39,0.0,0.0,37,0.00,,---,0.00,VWS V14.01,2013-10-09 10:56:00,
2013-10-09 07:01:00,46.4,21.6,30.04,North,0,0.0,0.0,37,0.00,,---,0.00,VWS V14.01,2013-10-09 11:01:00,
2013-10-09 07:06:00,46.6,21.7,30.04,North,353,0.0,0.0,37,0.00,,---,0.00,VWS V14.01,2013-10-09 11:06:00,
2013-10-09 07:11:00,46.6,21.7,30.04,NNE,31,0.0,0.0,37,0.00,,---,0.00,VWS V14.01,2013-10-09 11:11:00,
2013-10-09 07:16:00,46.6,21.7,30.04,NNE,27,0.0,0.0,37,0.00,,---,0.00,VWS V14.01,2013-10-09 11:16:00,
2013-10-09 07:21:00,46.6,21.7,30.04,NNW,330,0.0,0.0,37,0.00,,---,0.00,VWS V14.01,2013-10-09 11:21:00,
2013-10-09 07:26:00,46.6,21.7,30.04,ESE,112,0.0,0.0,37,0.00,,---,0.00,VWS V14.01,2013-10-09 11:26:00,
2013-10-09 07:31:00,46.6,21.7,30.04,WNW,302,0.0,0.0,37,0.00,,---,0.00,VWS V14.01,2013-10-09 11:31:00,
2013-10-09 07:36:00,46.6,21.7,30.04,NE,46,0.0,0.0,37,0.00,,---,0.00,VWS V14.01,2013-10-09 11:36:00,
2013-10-09 07:41:00,46.8,21.9,30.04,NE,50,0.0,0.0,37,0.00,,---,0.00,VWS V14.01,2013-10-09 11:41:00,
2013-10-09 07:46:00,46.8,21.9,30.04,West,270,0.0,0.0,37,0.00,,---,0.00,VWS V14.01,2013-10-09 11:46:00,
2013-10-09 07:51:00,46.8,21.9,30.04,NW,323,0.0,0.0,37,0.00,,---,0.00,VWS V14.01,2013-10-09 11:51:00,
2013-10-09 07:56:00,46.9,22.0,30.04,NE,43,0.0,0.0,37,0.00,,---,0.00,VWS V14.01,2013-10-09 11:56:00,
2013-10-09 08:01:00,46.9,22.0,30.04,WSW,246,0.0,0.0,37,0.00,,---,0.00,VWS V14.01,2013-10-09 12:01:00,
2013-10-09 08:03:00,47.1,22.2,30.04,WNW,287,0.0,2.2,37,0.00,,---,0.00,VWS V14.01,2013-10-09 12:03:00,
2013-10-09 08:08:00,47.1,22.2,30.04,NNW,341,0.0,0.0,37,0.00,,---,0.00,VWS V14.01,2013-10-09 12:08:00,
2013-10-09 08:13:00,47.1,22.2,30.04,ENE,64,0.0,0.0,37,0.00,,---,0.00,VWS V14.01,2013-10-09 12:13:00,
2013-10-09 08:18:00,47.1,22.2,30.04,West,281,0.0,0.0,37,0.00,,---,0.00,VWS V14.01,2013-10-09 12:18:00,
2013-10-09 08:23:00,47.3,22.4,30.04,NE,39,0.0,2.7,37,0.00,,---,0.00,VWS V14.01,2013-10-09 12:23:00,
2013-10-09 08:28:00,47.1,22.2,30.04,North,4,0.0,0.0,37,0.00,,---,0.00,VWS V14.01,2013-10-09 12:28:00,
2013-10-09 08:33:00,47.3,22.4,30.04,NW,311,0.0,2.7,37,0.00,,---,0.00,VWS V14.01,2013-10-09 12:33:00,
2013-10-09 08:38:00,47.1,22.2,30.04,West,275,2.2,2.7,37,0.00,,---,0.00,VWS V14.01,2013-10-09 12:38:00,
2013-10-09 08:43:00,47.1,22.2,30.04,NNE,32,3.1,4.0,37,0.00,,---,0.00,VWS V14.01,2013-10-09 12:43:00,
2013-10-09 08:48:00,47.3,22.4,30.04,ENE,58,0.0,0.0,37,0.00,,---,0.00,VWS V14.01,2013-10-09 12:48:00,
2013-10-09 08:53:00,47.3,22.4,30.04,ENE,62,0.0,0.0,37,0.00,,---,0.00,VWS V14.01,2013-10-09 12:53:00,
2013-10-09 08:58:00,47.5,22.5,30.04,ENE,76,0.0,3.6,37,0.00,,---,0.00,VWS V14.01,2013-10-09 12:58:00,
2013-10-09 09:03:00,47.5,22.5,30.04,North,0,0.0,4.9,37,0.00,,---,0.00,VWS V14.01,2013-10-09 13:03:00,
2013-10-09 09:08:00,47.7,22.7,30.04,North,5,0.0,0.0,37,0.00,,---,0.00,VWS V14.01,2013-10-09 13:08:00,
2013-10-09 09:13:00,47.8,22.9,30.04,NNE,23,0.0,0.0,37,0.00,,---,0.00,VWS V14.01,2013-10-09 13:13:00,
2013-10-09 09:18:00,47.8,22.9,30.07,NE,43,0.0,2.2,37,0.00,,---,0.00,VWS V14.01,2013-10-09 13:18:00,
2013-10-09 09:23:00,48.2,23.2,30.07,NE,42,5.4,5.8,37,0.00,,---,0.00,VWS V14.01,2013-10-09 13:23:00,
2013-10-09 09:27:00,48.2,23.2,30.07,North,2,3.1,4.9,37,0.00,,---,0.00,VWS V14.01,2013-10-09 13:27:00,
2013-10-09 09:32:00,48.4,23.3,30.07,North,0,0.0,0.0,37,0.00,,---,0.00,VWS V14.01,2013-10-09 13:32:00,
2013-10-09 09:37:00,48.6,23.5,30.07,NNE,27,0.0,0.0,37,0.00,,---,0.00,VWS V14.01,2013-10-09 13:37:00,
2013-10-09 09:42:00,48.6,23.5,30.07,NE,42,4.0,4.9,37,0.00,,---,0.00,VWS V14.01,2013-10-09 13:42:00,
2013-10-09 09:47:00,48.7,23.6,30.07,ENE,72,0.0,0.0,37,0.00,,---,0.00,VWS V14.01,2013-10-09 13:47:00,
2013-10-09 09:52:00,49.1,24.0,30.07,NNE,28,0.0,0.0,37,0.00,,---,0.00,VWS V14.01,2013-10-09 13:52:00,
2013-10-09 09:57:00,49.5,24.3,30.07,WNW,286,0.0,0.0,37,0.00,,---,0.00,VWS V14.01,2013-10-09 13:57:00,
2013-10-09 10:02:00,50.0,24.1,30.07,West,266,0.0,0.0,36,0.00,,---,0.00,VWS V14.01,2013-10-09 14:02:00,
2013-10-09 10:07:00,50.7,24.8,30.07,NNW,339,0.0,2.7,36,0.00,,---,0.00,VWS V14.01,2013-10-09 14:07:00,
2013-10-09 10:12:00,51.3,25.2,30.07,WNW,295,0.0,0.0,36,0.00,,---,0.00,VWS V14.01,2013-10-09 14:12:00,
2013-10-09 10:17:00,51.6,25.6,30.07,NW,304,3.1,3.1,36,0.00,,---,0.00,VWS V14.01,2013-10-09 14:17:00,
2013-10-09 10:22:00,52.2,26.0,30.07,West,263,0.0,0.0,36,0.00,,---,0.00,VWS V14.01,2013-10-09 14:22:00,
2013-10-09 10:27:00,52.5,26.4,30.07,NW,314,2.2,4.0,36,0.00,,---,0.00,VWS V14.01,2013-10-09 14:27:00,
2013-10-09 10:32:00,52.9,26.7,30.07,WSW,256,0.0,0.0,36,0.00,,---,0.00,VWS V14.01,2013-10-09 14:32:00,
2013-10-09 10:37:00,53.2,27.0,30.07,SSW,211,0.0,4.9,36,0.00,,---,0.00,VWS V14.01,2013-10-09 14:37:00,
2013-10-09 10:42:00,53.4,27.1,30.07,NE,47,0.0,4.0,36,0.00,,---,0.00,VWS V14.01,2013-10-09 14:42:00,
2013-10-09 10:47:00,53.8,27.5,30.07,North,9,0.0,0.0,36,0.00,,---,0.00,VWS V14.01,2013-10-09 14:47:00,
2013-10-09 10:52:00,54.1,27.8,30.07,NW,306,4.9,4.9,36,0.00,,---,0.00,VWS V14.01,2013-10-09 14:52:00,
2013-10-09 10:57:00,54.3,28.0,30.07,West,281,2.7,8.1,36,0.00,,---,0.00,VWS V14.01,2013-10-09 14:57:00,
2013-10-09 11:02:00,54.7,28.3,30.07,NE,56,4.0,4.0,36,0.00,,---,0.00,VWS V14.01,2013-10-09 15:02:00,
2013-10-09 11:07:00,55.0,28.6,30.07,East,82,0.0,2.7,36,0.00,,---,0.00,VWS V14.01,2013-10-09 15:07:00,
2013-10-09 11:12:00,55.2,28.8,30.07,West,276,2.2,2.7,36,0.00,,---,0.00,VWS V14.01,2013-10-09 15:12:00,
2013-10-09 11:17:00,55.4,28.2,30.07,North,353,3.1,3.1,35,0.00,,---,0.00,VWS V14.01,2013-10-09 15:17:00,
2013-10-09 11:22:00,55.8,28.5,30.07,ENE,71,0.0,0.0,35,0.00,,---,0.00,VWS V14.01,2013-10-09 15:22:00,
2013-10-09 11:27:00,56.3,29.0,30.07,NW,309,7.2,7.2,35,0.00,,---,0.00,VWS V14.01,2013-10-09 15:27:00,
2013-10-09 11:32:00,56.7,29.3,30.07,WNW,290,3.1,4.0,35,0.00,,---,0.00,VWS V14.01,2013-10-09 15:32:00,
2013-10-09 11:37:00,56.8,29.5,30.07,NNW,331,4.9,4.9,35,0.00,,---,0.00,VWS V14.01,2013-10-09 15:37:00,
2013-10-09 11:42:00,57.0,29.7,30.07,North,349,0.0,3.1,35,0.00,,---,0.00,VWS V14.01,2013-10-09 15:42:00,
2013-10-09 11:47:00,57.2,29.8,30.07,NNE,27,4.0,4.0,35,0.00,,---,0.00,VWS V14.01,2013-10-09 15:47:00,
2013-10-09 11:52:00,57.6,30.1,30.07,WSW,239,2.2,3.6,35,0.00,,---,0.00,VWS V14.01,2013-10-09 15:52:00,
2013-10-09 11:57:00,57.6,30.1,30.07,ESE,114,0.0,2.7,35,0.00,,---,0.00,VWS V14.01,2013-10-09 15:57:00,
2013-10-09 12:02:00,57.6,30.1,30.07,NE,45,0.0,0.0,35,0.00,,---,0.00,VWS V14.01,2013-10-09 16:02:00,
2013-10-09 12:07:00,57.7,30.3,30.07,NE,42,4.0,4.0,35,0.00,,---,0.00,VWS V14.01,2013-10-09 16:07:00,
2013-10-09 12:12:00,58.1,30.6,30.07,SE,128,4.9,4.9,35,0.00,,---,0.00,VWS V14.01,2013-10-09 16:12:00,
2013-10-09 12:17:00,58.5,30.9,30.07,NE,38,0.0,0.0,35,0.00,,---,0.00,VWS V14.01,2013-10-09 16:17:00,
2013-10-09 12:22:00,58.6,31.1,30.07,SE,145,0.0,4.0,35,0.00,,---,0.00,VWS V14.01,2013-10-09 16:22:00,
2013-10-09 12:27:00,58.8,31.2,30.07,WNW,284,0.0,4.9,35,0.00,,---,0.00,VWS V14.01,2013-10-09 16:27:00,
2013-10-09 12:32:00,59.2,30.9,30.07,West,277,0.0,0.0,34,0.00,,---,0.00,VWS V14.01,2013-10-09 16:32:00,
2013-10-09 12:37:00,59.2,30.9,30.07,East,92,0.0,0.0,34,0.00,,---,0.00,VWS V14.01,2013-10-09 16:37:00,
2013-10-09 12:42:00,59.2,30.9,30.07,NE,49,2.7,3.1,34,0.00,,---,0.00,VWS V14.01,2013-10-09 16:42:00,
2013-10-09 12:47:00,59.4,31.0,30.07,NE,34,0.0,0.0,34,0.00,,---,0.00,VWS V14.01,2013-10-09 16:47:00,
2013-10-09 12:52:00,59.4,31.0,30.07,WNW,292,2.7,2.7,34,0.00,,---,0.00,VWS V14.01,2013-10-09 16:52:00,
2013-10-09 12:57:00,59.5,31.2,30.07,NE,35,0.0,4.0,34,0.00,,---,0.00,VWS V14.01,2013-10-09 16:57:00,
2013-10-09 13:02:00,59.7,31.3,30.07,NE,41,0.0,0.0,34,0.00,,---,0.00,VWS V14.01,2013-10-09 17:02:00,
2013-10-09 13:07:00,60.1,31.6,30.07,NNW,346,0.0,0.0,34,0.00,,---,0.00,VWS V14.01,2013-10-09 17:07:00,
2013-10-09 13:12:00,60.8,32.3,30.07,NE,53,0.0,0.0,34,0.00,,---,0.00,VWS V14.01,2013-10-09 17:12:00,
2013-10-09 13:17:00,60.8,32.3,30.07,NE,46,3.1,4.9,34,0.00,,---,0.00,VWS V14.01,2013-10-09 17:17:00,
2013-10-09 13:22:00,60.8,32.3,30.07,WSW,243,0.0,2.7,34,0.00,,---,0.00,VWS V14.01,2013-10-09 17:22:00,
2013-10-09 13:27:00,61.2,32.6,30.07,NW,310,0.0,2.2,34,0.00,,---,0.00,VWS V14.01,2013-10-09 17:27:00,
2013-10-09 13:32:00,61.7,33.1,30.04,NNE,18,0.0,0.0,34,0.00,,---,0.00,VWS V14.01,2013-10-09 17:32:00,
2013-10-09 13:37:00,61.9,33.2,30.04,WNW,293,0.0,0.0,34,0.00,,---,0.00,VWS V14.01,2013-10-09 17:37:00,
2013-10-09 13:42:00,61.9,33.2,30.04,ENE,61,2.7,3.6,34,0.00,,---,0.00,VWS V14.01,2013-10-09 17:42:00,
2013-10-09 13:47:00,61.9,33.2,30.04,NNE,14,0.0,0.0,34,0.00,,---,0.00,VWS V14.01,2013-10-09 17:47:00,
2013-10-09 13:52:00,62.6,33.9,30.04,NW,314,0.0,0.0,34,0.00,,---,0.00,VWS V14.01,2013-10-09 17:52:00,
2013-10-09 13:57:00,63.5,34.7,30.04,WSW,255,0.0,0.0,34,0.00,,---,0.00,VWS V14.01,2013-10-09 17:57:00,
2013-10-09 14:02:00,64.0,35.1,30.04,SSW,197,0.0,0.0,34,0.00,,---,0.00,VWS V14.01,2013-10-09 18:02:00,
2013-10-09 14:07:00,63.0,34.2,30.04,NNE,17,0.0,0.0,34,0.00,,---,0.00,VWS V14.01,2013-10-09 18:07:00,
2013-10-09 14:12:00,62.4,33.7,30.04,ESE,114,0.0,0.0,34,0.00,,---,0.00,VWS V14.01,2013-10-09 18:12:00,
2013-10-09 14:17:00,63.0,34.2,30.04,NE,44,0.0,0.0,34,0.00,,---,0.00,VWS V14.01,2013-10-09 18:17:00,
2013-10-09 14:22:00,63.7,34.8,30.04,NW,314,0.0,0.0,34,0.00,,---,0.00,VWS V14.01,2013-10-09 18:22:00,
2013-10-09 14:27:00,64.2,35.3,30.04,NW,320,0.0,0.0,34,0.00,,---,0.00,VWS V14.01,2013-10-09 18:27:00,
2013-10-09 14:32:00,64.8,35.0,30.04,East,83,0.0,0.0,33,0.00,,---,0.00,VWS V14.01,2013-10-09 18:32:00,
2013-10-09 14:37:00,64.9,35.2,30.04,NE,51,3.1,4.0,33,0.00,,---,0.00,VWS V14.01,2013-10-09 18:37:00,
2013-10-09 14:42:00,63.9,35.0,30.04,NE,43,0.0,0.0,34,0.00,,---,0.00,VWS V14.01,2013-10-09 18:42:00,
2013-10-09 14:47:00,63.5,34.7,30.04,NNE,22,0.0,0.0,34,0.00,,---,0.00,VWS V14.01,2013-10-09 18:47:00,
2013-10-09 14:52:00,63.7,34.8,30.04,NW,307,0.0,0.0,34,0.00,,---,0.00,VWS V14.01,2013-10-09 18:52:00,
2013-10-09 14:57:00,63.9,35.0,30.04,NE,39,0.0,2.2,34,0.00,,---,0.00,VWS V14.01,2013-10-09 18:57:00,
2013-10-09 15:02:00,63.5,34.7,30.04,North,0,0.0,0.0,34,0.00,,---,0.00,VWS V14.01,2013-10-09 19:02:00,
2013-10-09 15:07:00,63.3,34.5,30.04,North,10,0.0,0.0,34,0.00,,---,0.00,VWS V14.01,2013-10-09 19:07:00,
2013-10-09 15:12:00,63.1,34.3,30.04,North,10,0.0,0.0,34,0.00,,---,0.00,VWS V14.01,2013-10-09 19:12:00,
2013-10-09 15:17:00,63.1,34.3,30.04,NE,41,0.0,0.0,34,0.00,,---,0.00,VWS V14.01,2013-10-09 19:17:00,
2013-10-09 15:22:00,61.9,33.2,30.04,NE,36,2.7,3.6,34,0.00,,---,0.00,VWS V14.01,2013-10-09 19:22:00,
2013-10-09 15:27:00,62.1,33.4,30.04,NE,36,0.0,0.0,34,0.00,,---,0.00,VWS V14.01,2013-10-09 19:27:00,
2013-10-09 15:32:00,61.7,33.1,30.04,NE,39,0.0,0.0,34,0.00,,---,0.00,VWS V14.01,2013-10-09 19:32:00,
2013-10-09 15:37:00,61.3,32.8,30.04,NE,53,0.0,0.0,34,0.00,,---,0.00,VWS V14.01,2013-10-09 19:37:00,
2013-10-09 15:42:00,61.3,32.8,30.04,West,281,0.0,0.0,34,0.00,,---,0.00,VWS V14.01,2013-10-09 19:42:00,
2013-10-09 15:47:00,61.0,32.4,30.04,NE,50,0.0,2.7,34,0.00,,---,0.00,VWS V14.01,2013-10-09 19:47:00,
2013-10-09 15:52:00,61.0,32.4,30.04,NE,51,0.0,0.0,34,0.00,,---,0.00,VWS V14.01,2013-10-09 19:52:00,
2013-10-09 15:57:00,60.6,32.1,30.04,NE,38,0.0,0.0,34,0.00,,---,0.00,VWS V14.01,2013-10-09 19:57:00,
2013-10-09 16:02:00,60.8,32.3,30.04,NE,38,0.0,0.0,34,0.00,,---,0.00,VWS V14.01,2013-10-09 20:02:00,
2013-10-09 16:07:00,61.0,32.4,30.04,ENE,71,0.0,0.0,34,0.00,,---,0.00,VWS V14.01,2013-10-09 20:07:00,
2013-10-09 16:12:00,60.8,32.3,30.04,NE,56,0.0,0.0,34,0.00,,---,0.00,VWS V14.01,2013-10-09 20:12:00,
2013-10-09 16:17:00,60.6,32.1,30.04,NNW,343,0.0,0.0,34,0.00,,---,0.00,VWS V14.01,2013-10-09 20:17:00,
2013-10-09 16:22:00,60.3,31.8,30.04,NNE,13,0.0,0.0,34,0.00,,---,0.00,VWS V14.01,2013-10-09 20:22:00,
2013-10-09 16:27:00,59.7,31.3,30.04,WNW,298,0.0,0.0,34,0.00,,---,0.00,VWS V14.01,2013-10-09 20:27:00,
2013-10-09 16:32:00,59.5,31.2,30.04,NE,36,0.0,0.0,34,0.00,,---,0.00,VWS V14.01,2013-10-09 20:32:00,
2013-10-09 16:37:00,59.2,30.9,30.04,NE,51,0.0,0.0,34,0.00,,---,0.00,VWS V14.01,2013-10-09 20:37:00,
2013-10-09 16:42:00,59.0,30.7,30.04,NE,51,0.0,0.0,34,0.00,,---,0.00,VWS V14.01,2013-10-09 20:42:00,
2013-10-09 16:47:00,58.8,31.2,30.04,NE,48,0.0,0.0,35,0.00,,---,0.00,VWS V14.01,2013-10-09 20:47:00,
2013-10-09 16:52:00,58.5,30.9,30.04,NE,48,0.0,0.0,35,0.00,,---,0.00,VWS V14.01,2013-10-09 20:52:00,
2013-10-09 16:57:00,58.1,30.6,30.04,NE,55,0.0,0.0,35,0.00,,---,0.00,VWS V14.01,2013-10-09 20:57:00,
2013-10-09 17:02:00,57.9,30.5,30.04,NE,55,0.0,0.0,35,0.00,,---,0.00,VWS V14.01,2013-10-09 21:02:00,
2013-10-09 17:07:00,57.9,30.5,30.04,NE,55,0.0,0.0,35,0.00,,---,0.00,VWS V14.01,2013-10-09 21:07:00,
2013-10-09 17:12:00,57.9,30.5,30.04,North,5,0.0,0.0,35,0.00,,---,0.00,VWS V14.01,2013-10-09 21:12:00,
2013-10-09 17:17:00,57.7,30.3,30.01,North,5,0.0,0.0,35,0.00,,---,0.00,VWS V14.01,2013-10-09 21:17:00,
2013-10-09 17:22:00,57.6,30.1,30.01,North,5,0.0,0.0,35,0.00,,---,0.00,VWS V14.01,2013-10-09 21:22:00,
2013-10-09 17:27:00,57.2,29.8,30.01,North,5,0.0,0.0,35,0.00,,---,0.00,VWS V14.01,2013-10-09 21:27:00,
2013-10-09 17:32:00,57.0,29.7,30.01,North,5,0.0,0.0,35,0.00,,---,0.00,VWS V14.01,2013-10-09 21:32:00,
2013-10-09 17:37:00,56.7,29.3,30.01,North,5,0.0,0.0,35,0.00,,---,0.00,VWS V14.01,2013-10-09 21:37:00,
2013-10-09 17:42:00,56.3,29.0,30.01,North,5,0.0,0.0,35,0.00,,---,0.00,VWS V14.01,2013-10-09 21:42:00,
2013-10-09 17:47:00,55.9,28.7,30.01,North,5,0.0,0.0,35,0.00,,---,0.00,VWS V14.01,2013-10-09 21:47:00,
2013-10-09 17:52:00,55.8,28.5,30.01,North,5,0.0,0.0,35,0.00,,---,0.00,VWS V14.01,2013-10-09 21:52:00,
2013-10-09 17:57:00,55.4,28.2,30.01,North,5,0.0,0.0,35,0.00,,---,0.00,VWS V14.01,2013-10-09 21:57:00,
2013-10-09 18:02:00,55.0,28.6,30.01,North,5,0.0,0.0,36,0.00,,---,0.00,VWS V14.01,2013-10-09 22:02:00,
2013-10-09 18:07:00,54.9,28.4,30.01,North,5,0.0,0.0,36,0.00,,---,0.00,VWS V14.01,2013-10-09 22:07:00,
2013-10-09 18:12:00,54.5,28.1,30.01,North,5,0.0,0.0,36,0.00,,---,0.00,VWS V14.01,2013-10-09 22:12:00,
2013-10-09 18:17:00,54.3,28.0,30.01,North,5,0.0,0.0,36,0.00,,---,0.00,VWS V14.01,2013-10-09 22:17:00,
2013-10-09 18:22:00,54.0,27.6,30.01,North,5,0.0,0.0,36,0.00,,---,0.00,VWS V14.01,2013-10-09 22:22:00,
2013-10-09 18:27:00,53.8,27.5,30.01,North,5,0.0,0.0,36,0.00,,---,0.00,VWS V14.01,2013-10-09 22:27:00,
2013-10-09 18:32:00,53.4,27.1,30.01,North,5,0.0,0.0,36,0.00,,---,0.00,VWS V14.01,2013-10-09 22:32:00,
2013-10-09 18:37:00,53.2,27.0,30.01,North,5,0.0,0.0,36,0.00,,---,0.00,VWS V14.01,2013-10-09 22:37:00,
2013-10-09 18:42:00,53.1,26.8,30.01,North,5,0.0,0.0,36,0.00,,---,0.00,VWS V14.01,2013-10-09 22:42:00,
2013-10-09 18:47:00,52.9,26.7,30.01,North,5,0.0,0.0,36,0.00,,---,0.00,VWS V14.01,2013-10-09 22:47:00,
2013-10-09 18:52:00,52.7,26.5,30.01,North,5,0.0,0.0,36,0.00,,---,0.00,VWS V14.01,2013-10-09 22:52:00,
2013-10-09 18:57:00,52.7,26.5,30.01,North,5,0.0,0.0,36,0.00,,---,0.00,VWS V14.01,2013-10-09 22:57:00,
2013-10-09 19:02:00,52.5,26.4,30.01,NNE,33,0.0,0.0,36,0.00,,---,0.00,VWS V14.01,2013-10-09 23:02:00,
2013-10-09 19:07:00,52.3,26.2,30.01,NNE,33,0.0,0.0,36,0.00,,---,0.00,VWS V14.01,2013-10-09 23:07:00,
2013-10-09 19:12:00,52.2,26.0,30.01,NNE,33,0.0,0.0,36,0.00,,---,0.00,VWS V14.01,2013-10-09 23:12:00,
2013-10-09 19:17:00,52.0,25.9,30.01,NNE,33,0.0,0.0,36,0.00,,---,0.00,VWS V14.01,2013-10-09 23:17:00,
2013-10-09 19:22:00,52.0,25.9,30.01,NNE,33,0.0,0.0,36,0.00,,---,0.00,VWS V14.01,2013-10-09 23:22:00,
2013-10-09 19:27:00,51.8,25.7,30.01,North,353,0.0,0.0,36,0.00,,---,0.00,VWS V14.01,2013-10-09 23:27:00,
2013-10-09 19:32:00,51.8,25.7,30.01,North,353,0.0,0.0,36,0.00,,---,0.00,VWS V14.01,2013-10-09 23:32:00,
2013-10-09 19:37:00,51.8,25.7,30.01,North,353,0.0,0.0,36,0.00,,---,0.00,VWS V14.01,2013-10-09 23:37:00,
2013-10-09 19:42:00,51.6,25.6,30.01,North,353,0.0,0.0,36,0.00,,---,0.00,VWS V14.01,2013-10-09 23:42:00,
2013-10-09 19:47:00,51.6,25.6,30.01,North,353,0.0,0.0,36,0.00,,---,0.00,VWS V14.01,2013-10-09 23:47:00,
2013-10-09 19:52:00,51.4,25.4,30.01,North,353,0.0,0.0,36,0.00,,---,0.00,VWS V14.01,2013-10-09 23:52:00,
2013-10-09 19:57:00,51.3,25.2,30.01,North,353,0.0,0.0,36,0.00,,---,0.00,VWS V14.01,2013-10-09 23:57:00,
2013-10-09 20:02:00,51.3,25.2,30.01,North,353,0.0,0.0,36,0.00,,---,0.00,VWS V14.01,2013-10-10 00:02:00,
2013-10-09 20:07:00,51.1,25.1,30.01,NW,326,0.0,0.0,36,0.00,,---,0.00,VWS V14.01,2013-10-10 00:07:00,
2013-10-09 20:12:00,50.9,24.9,30.01,East,82,2.2,2.2,36,0.00,,---,0.00,VWS V14.01,2013-10-10 00:12:00,
2013-10-09 20:17:00,50.9,24.9,30.01,East,81,0.0,0.0,36,0.00,,---,0.00,VWS V14.01,2013-10-10 00:17:00,
2013-10-09 20:22:00,50.9,24.9,30.01,East,81,0.0,0.0,36,0.00,,---,0.00,VWS V14.01,2013-10-10 00:22:00,
2013-10-09 20:27:00,50.7,24.8,30.01,East,81,0.0,0.0,36,0.00,,---,0.00,VWS V14.01,2013-10-10 00:27:00,
2013-10-09 20:32:00,50.7,24.8,30.01,East,80,0.0,0.0,36,0.00,,---,0.00,VWS V14.01,2013-10-10 00:32:00,
2013-10-09 20:37:00,50.7,24.8,30.01,East,80,0.0,0.0,36,0.00,,---,0.00,VWS V14.01,2013-10-10 00:37:00,
2013-10-09 20:42:00,50.5,24.6,30.01,East,80,0.0,0.0,36,0.00,,---,0.00,VWS V14.01,2013-10-10 00:42:00,
2013-10-09 20:47:00,50.5,24.6,30.01,East,82,0.0,0.0,36,0.00,,---,0.00,VWS V14.01,2013-10-10 00:47:00,
2013-10-09 20:52:00,50.5,24.6,30.01,East,82,0.0,0.0,36,0.00,,---,0.00,VWS V14.01,2013-10-10 00:52:00,
2013-10-09 20:57:00,50.5,24.6,30.01,NE,43,0.0,0.0,36,0.00,,---,0.00,VWS V14.01,2013-10-10 00:57:00,
2013-10-09 21:02:00,50.5,24.6,30.01,NNW,338,0.0,0.0,36,0.00,,---,0.00,VWS V14.01,2013-10-10 01:02:00,
2013-10-09 21:07:00,50.5,24.6,30.01,NE,51,0.0,0.0,36,0.00,,---,0.00,VWS V14.01,2013-10-10 01:07:00,
2013-10-09 21:12:00,50.4,24.4,30.01,NNE,30,0.0,0.0,36,0.00,,---,0.00,VWS V14.01,2013-10-10 01:12:00,
2013-10-09 21:17:00,50.4,24.4,30.01,NW,306,0.0,2.7,36,0.00,,---,0.00,VWS V14.01,2013-10-10 01:17:00,
2013-10-09 21:21:00,50.4,24.4,30.01,North,353,0.0,2.2,36,0.00,,---,0.00,VWS V14.01,2013-10-10 01:21:00,
2013-10-09 21:26:00,50.2,24.3,30.01,NW,326,0.0,0.0,36,0.00,,---,0.00,VWS V14.01,2013-10-10 01:26:00,
2013-10-09 21:31:00,50.2,24.3,30.01,NW,304,0.0,0.0,36,0.00,,---,0.00,VWS V14.01,2013-10-10 01:31:00,
2013-10-09 21:36:00,50.2,24.3,30.01,NW,318,0.0,0.0,36,0.00,,---,0.00,VWS V14.01,2013-10-10 01:36:00,
2013-10-09 21:41:00,50.2,24.3,30.01,WNW,303,0.0,0.0,36,0.00,,---,0.00,VWS V14.01,2013-10-10 01:41:00,
2013-10-09 21:46:00,50.2,24.3,30.01,NNW,345,0.0,0.0,36,0.00,,---,0.00,VWS V14.01,2013-10-10 01:46:00,
2013-10-09 21:51:00,50.2,24.3,30.01,WNW,297,0.0,0.0,36,0.00,,---,0.00,VWS V14.01,2013-10-10 01:51:00,
2013-10-09 21:56:00,50.2,24.3,30.01,West,274,0.0,2.2,36,0.00,,---,0.00,VWS V14.01,2013-10-10 01:56:00,
2013-10-09 22:01:00,50.0,24.1,30.01,ENE,68,3.1,3.1,36,0.00,,---,0.00,VWS V14.01,2013-10-10 02:01:00,
2013-10-09 22:06:00,50.0,24.1,30.01,ENE,60,0.0,0.0,36,0.00,,---,0.00,VWS V14.01,2013-10-10 02:06:00,
2013-10-09 22:11:00,49.8,24.6,30.01,ENE,60,0.0,0.0,37,0.00,,---,0.00,VWS V14.01,2013-10-10 02:11:00,
2013-10-09 22:16:00,49.8,24.6,30.01,NE,38,0.0,0.0,37,0.00,,---,0.00,VWS V14.01,2013-10-10 02:16:00,
2013-10-09 22:21:00,49.8,24.6,30.01,NNE,25,0.0,0.0,37,0.00,,---,0.00,VWS V14.01,2013-10-10 02:21:00,
2013-10-09 22:26:00,49.8,24.6,30.01,NE,44,0.0,0.0,37,0.00,,---,0.00,VWS V14.01,2013-10-10 02:26:00,
2013-10-09 22:31:00,49.8,24.6,30.01,NNE,31,0.0,0.0,37,0.00,,---,0.00,VWS V14.01,2013-10-10 02:31:00,
2013-10-09 22:36:00,49.8,24.6,30.01,NE,45,0.0,0.0,37,0.00,,---,0.00,VWS V14.01,2013-10-10 02:36:00,
2013-10-09 22:41:00,49.6,24.5,30.01,NNE,14,0.0,0.0,37,0.00,,---,0.00,VWS V14.01,2013-10-10 02:41:00,
2013-10-09 22:46:00,49.8,24.6,30.01,NE,36,0.0,0.0,37,0.00,,---,0.00,VWS V14.01,2013-10-10 02:46:00,
2013-10-09 22:51:00,49.6,24.5,30.01,NE,49,0.0,0.0,37,0.00,,---,0.00,VWS V14.01,2013-10-10 02:51:00,
2013-10-09 22:56:00,49.6,24.5,30.01,NE,50,0.0,4.0,37,0.00,,---,0.00,VWS V14.01,2013-10-10 02:56:00,
2013-10-09 23:01:00,49.5,24.3,30.01,NE,54,2.7,3.1,37,0.00,,---,0.00,VWS V14.01,2013-10-10 03:01:00,
2013-10-09 23:06:00,49.3,24.1,30.01,NE,39,0.0,0.0,37,0.00,,---,0.00,VWS V14.01,2013-10-10 03:06:00,
2013-10-09 23:11:00,49.3,24.1,30.01,NE,39,0.0,0.0,37,0.00,,---,0.00,VWS V14.01,2013-10-10 03:11:00,
2013-10-09 23:16:00,49.1,24.0,30.01,NE,39,0.0,0.0,37,0.00,,---,0.00,VWS V14.01,2013-10-10 03:16:00,
2013-10-09 23:21:00,49.1,24.0,30.01,NE,56,0.0,0.0,37,0.00,,---,0.00,VWS V14.01,2013-10-10 03:21:00,
2013-10-09 23:26:00,48.9,23.8,30.01,ENE,61,0.0,0.0,37,0.00,,---,0.00,VWS V14.01,2013-10-10 03:26:00,
2013-10-09 23:31:00,48.7,23.6,30.01,ENE,61,0.0,0.0,37,0.00,,---,0.00,VWS V14.01,2013-10-10 03:31:00,
2013-10-09 23:36:00,48.7,23.6,30.01,ENE,61,0.0,0.0,37,0.00,,---,0.00,VWS V14.01,2013-10-10 03:36:00,
2013-10-09 23:41:00,48.7,23.6,30.01,ENE,61,0.0,0.0,37,0.00,,---,0.00,VWS V14.01,2013-10-10 03:41:00,
2013-10-09 23:46:00,48.7,23.6,30.01,ENE,61,0.0,0.0,37,0.00,,---,0.00,VWS V14.01,2013-10-10 03:46:00,
2013-10-09 23:51:00,48.7,23.6,30.01,ENE,61,0.0,0.0,37,0.00,,---,0.00,VWS V14.01,2013-10-10 03:51:00,
2013-10-09 23:56:00,48.7,23.6,30.01,ENE,61,0.0,0.0,37,0.00,,---,0.00,VWS V14.01,2013-10-10 03:56:00,